NIMBUS 2 DEB, 28613

Orbit data source: Space-Track

NIMBUS 2 DEB, 28613 is space debris in SSO originally from a launch on Sun, 15 May 1966 UTC launched from the Air Force Western Test Range (AFWTR). Debris objects in space refer to the collection of defunct objects orbiting the Earth. Examples of debris include non-operational satellites, rocket bodies, and fragments generated from explosions, collisions, or faulty payload assembly.

Loading next visibility...
Identifier
28613, 1966-040AC
Orbit
SSO
Country
Flag of USUS
Related business
Manufacturer
Unknown
Mission
Spacecraft
Bus & Motor
Unknown
Mass
Unknown
Launch date (UTC)
1966-05-15 (60 years ago)
Launch vehicle
Unknown
Launch site
Air Force Western Test Range (AFWTR)
Object type
Payload
Rocket body
Debris
Shape & HBR
Unknown shape, 0.1 m
Radar Cross Section
Small (<0.1 m²)

Expand to show TLE details & history
Last TLE update: 5 days ago

TLE from 5 days ago
0 NIMBUS 2 DEB
1 28613U 66040AC  25336.64850588  .00004474  00000-0  49810-2 0  9992
2 28613 100.3721 117.7647 0041325 327.0312  48.4679 13.71629382616410
Epoch: 2025-12-02T15:33Z
TLE epoch observation values (Epoch: 2025-12-02T15:33:50.908Z)
Latitude
15.56937°
Longitude
169.66394°
Altitude
975.707 km
Speed
7.375 km/s
True Right ascension
07h 39m 25s
True Declination
15° 28' 60"
Sunlit
Object was in full shadow at epoch
Visualization orbit readout
Latitude
Unknown
Longitude
Unknown
Altitude
Unknown
Speed
Unknown
Apparent Right ascension
Unknown
Apparent Declination
Unknown
Sunlit
N/A
Visualization observer readout
Local Sidereal Time
04:40:32
Azimuth
Unknown
Elevation
Unknown
Doppler factor
Unknown
Orbital elements
Apogee altitude
1,021.489 km
Perigee altitude
960.583 km
Semi-major axis
7,369.173 km
Eccentricity
0.00413
Inclination
100.3721°
RAAN
117.7647°
Arg. of periapsis
327.0312°
True anomaly
48.82361°
Mean anomaly
48.4679°
Eccentric anomaly
48.64563°
Mean motion
3.43096 °/min
Orbital period
104.93 mins
BSTAR
0.004981
Loading maneuver chart data...
Computing Atmospheric mass density...
Loading historical data...
Loading historical data...
Loading historical data...
Loading historical data...
Loading historical data...
Loading historical data...
Loading historical data...

Documentation

Showing up to 5 results
|